This is the latest recevied weather packets stored in our database for station/object N4ASP-13. If no packets are shown the sender has not sent any weather packets the latest 10 day(s).
| Time | Temp. | Humidity | Pressure | Rain* | Wind** | Luminosity | Snow |
|---|---|---|---|---|---|---|---|
| 1777650606 | 13.33° C | 56% | 1015.4 hPa | 0 mm | - | 1322 W/m² | - |
| 1777650545 | 13.89° C | 56% | 1015.4 hPa | 0 mm | - | 1322 W/m² | - |
| 1777650486 | 13.33° C | 56% | 1015.4 hPa | 0 mm | - | 1171 W/m² | - |
| 1777650425 | 13.33° C | 56% | 1015.4 hPa | 0 mm | - | 1229 W/m² | - |
| 1777650366 | 13.33° C | 55% | 1015.4 hPa | 0 mm | - | 708 W/m² | - |
| 1777650306 | 13.33° C | 55% | 1015.4 hPa | 0 mm | - | 708 W/m² | - |
| 1777650247 | 13.89° C | 57% | 1015.5 hPa | 0 mm | - | 708 W/m² | - |
| 1777650186 | 13.89° C | 57% | 1015.5 hPa | 0 mm | - | 874 W/m² | - |
| 1777650127 | 13.89° C | 57% | 1015.5 hPa | 0 mm | - | 1123 W/m² | - |
| 1777650066 | 13.89° C | 56% | 1015.5 hPa | 0 mm | - | 1123 W/m² | - |
| 1777650006 | 13.89° C | 57% | 1015.5 hPa | 0 mm | - | 1123 W/m² | - |
| 1777649946 | 13.89° C | 60% | 1015.5 hPa | 0 mm | - | 1158 W/m² | - |
| 1777649886 | 13.89° C | 59% | 1015.5 hPa | 0 mm | - | 1116 W/m² | - |
| 1777649825 | 13.89° C | 57% | 1015.5 hPa | 0 mm | - | 1185 W/m² | - |
| 1777649766 | 13.89° C | 60% | 1015.5 hPa | 0 mm | - | 995 W/m² | - |
| 1777649705 | 13.33° C | 58% | 1015.5 hPa | 0 mm | - | 995 W/m² | - |
| 1777649647 | 13.89° C | 59% | 1015.5 hPa | 0 mm | - | 995 W/m² | - |
| 1777649586 | 13.89° C | 60% | 1015.5 hPa | 0 mm | - | 1042 W/m² | - |
| 1777649525 | 13.33° C | 60% | 1015.5 hPa | 0 mm | - | 1095 W/m² | - |
| 1777649466 | 13.33° C | 57% | 1015.5 hPa | 0 mm | - | 1067 W/m² | - |
| 1777649407 | 13.33° C | 57% | 1015.5 hPa | 0 mm | - | 1071 W/m² | - |
| 1777649345 | 13.33° C | 58% | 1015.6 hPa | 0 mm | - | 1071 W/m² | - |
| 1777649285 | 13.89° C | 57% | 1015.4 hPa | 0 mm | - | 1025 W/m² | - |
| 1777649227 | 13.89° C | 58% | 1015.4 hPa | 0 mm | - | 1049 W/m² | - |
| 1777649162 | 13.89° C | 58% | 1015.5 hPa | 0 mm | - | 738 W/m² | - |
* Rain latest hour (hover to see other rain measurements)
** Current wind speed in m/s (hover to see current wind gust speed)